Tracking 32139 objects as of 15-Nov-2025
HD Live streaming from Space Station
objects crossing your sky now

STARLINK-34866

Track STARLINK-34866 now!
10-day predictions
STARLINK-34866 is classified as:


NORAD ID: 65189
Int'l Code: 2025-175R
Perigee: 555.2 km
Apogee: 558.3 km
Inclination: 97.6 °
Period: 95.6 minutes
Semi major axis: 6927 km
RCS: Unknown
Launch date: August 14, 2025
Source: United States (US)
Launch site: AIR FORCE WESTERN TEST RANGE (AFWTR)
Your satellite tracking list
Your tracking list is empty




NASA's NSSDC Master Catalog

Two Line Element Set (TLE):
1 65189U 25175R   25319.59312894  .00029799  00000-0  20625-2 0  9993
2 65189  97.6051 190.2185 0002256  88.6812 271.4673 15.05618804 15478
Source of the keplerian elements: AFSPC